Theta_e
293 293 293 293 294 301 305 303 304 305 304 306 307 307 307 306 306 305 306 306 307 306 305 304 308 313 316 318 318 317 316 316 315 314 313 312 314 315 313 309 303 301 301 301
294 293 293 293 293 293 300 301 307 306 304 305 306 306 306 305 306 307 307 307 306 303 300 300 300 307 313 315 317 316 315 314 315 313 313 312 310 309 310 309 304 301 301 300
294 292 293 294 295 294 293 295 300 305 305 304 305 306 306 304 303 304 304 305 305 304 304 302 299 299 306 312 314 315 315 315 313 312 310 310 309 306 306 307 304 301 300 300
295 294 294 294 294 295 296 294 294 298 301 309 305 308 305 305 305 305 305 304 304 302 301 302 302 299 300 305 310 314 314 313 312 311 309 309 308 306 305 304 303 302 301 300
293 294 295 296 295 295 295 295 295 300 304 306 307 309 305 303 304 304 304 304 304 305 304 305 303 302 302 302 305 310 313 312 311 310 310 308 309 307 305 303 302 301 300 300
295 294 293 294 295 296 296 296 296 295 300 301 304 308 304 302 304 303 303 304 304 304 304 303 304 303 302 302 303 307 311 311 311 309 308 307 308 305 303 301 299 299 300 299
295 296 297 296 298 296 297 296 290 295 299 300 300 305 306 301 301 302 303 303 303 303 304 304 303 302 301 299 301 304 309 310 309 307 307 306 307 305 304 301 300 297 297 297
297 295 296 299 299 298 297 296 290 294 301 301 299 302 301 301 301 300 301 302 302 300 300 301 301 301 300 300 300 302 306 308 307 306 306 305 305 305 303 302 301 300 299 298
297 294 296 297 298 300 300 299 297 300 290 304 302 303 302 300 300 302 302 299 299 299 297 297 296 295 297 298 298 301 304 306 305 305 304 304 304 303 302 302 302 300 299 299
292 295 296 300 300 300 299 298 299 300 301 305 301 301 301 294 295 296 292 295 293 293 292 292 292 292 291 293 296 298 302 304 304 303 303 302 302 302 301 300 300 300 300 299
292 293 295 296 300 301 299 300 297 301 301 296 300 305 291 289 285 285 289 292 291 290 289 288 287 287 286 290 293 296 299 301 302 301 301 300 298 298 299 299 300 300 299 299
287 297 296 295 296 300 301 303 302 294 297 296 297 302 290 290 288 293 294 291 290 289 286 287 287 285 287 287 288 292 296 299 299 299 299 297 297 297 297 299 299 298 298 297
291 290 292 292 295 298 298 300 303 301 302 303 296 293 290 290 287 291 292 293 290 289 286 286 286 285 285 285 285 287 292 294 296 296 296 294 294 295 296 294 295 295 296 295
293 289 291 295 295 296 295 294 296 304 299 298 293 294 290 288 287 287 287 288 290 286 283 282 286 284 283 283 283 285 286 290 292 293 292 292 292 293 294 296 295 294 294 294
291 289 290 292 294 295 294 293 294 294 294 298 294 292 289 289 286 285 284 284 286 287 287 281 282 284 283 282 281 283 285 287 288 289 289 289 290 291 291 290 291 292 292 291
290 290 291 294 296 295 294 293 292 292 292 292 293 292 290 287 279 284 283 282 283 283 284 284 279 280 282 282 282 282 284 286 287 286 286 287 287 288 288 289 289 289 289 289
292 288 289 293 295 296 294 292 292 290 289 291 290 290 288 286 285 284 283 282 281 281 281 282 283 282 282 283 283 282 283 285 286 285 285 286 286 286 286 287 287 287 287 287
288 288 288 292 294 294 294 291 290 289 288 287 288 287 286 286 284 282 283 282 281 281 281 281 284 284 283 283 282 282 283 284 284 284 284 285 285 285 285 285 285 285 285 285
292 290 287 293 292 295 294 291 291 290 288 286 286 285 284 285 287 286 284 282 282 281 281 281 281 283 282 282 282 282 282 282 282 281 282 282 283 283 283 283 282 282 282 282
293 291 292 290 290 290 291 289 289 288 287 285 283 283 283 286 288 287 283 282 281 280 280 280 280 280 280 281 282 282 281 281 281 281 280 281 281 281 281 281 281 281 281 281
292 290 291 290 288 286 287 286 287 288 287 284 282 280 282 282 284 282 280 280 280 280 279 279 280 279 280 281 281 281 280 280 280 280 280 280 280 280 280 279 279 279 279 279
292 291 292 291 285 288 285 287 288 285 282 281 279 279 280 279 278 278 278 279 279 278 279 279 279 279 279 280 281 280 278 278 279 279 278 278 278 278 278 278 278 278 278 278
292 290 291 291 291 286 283 282 281 281 281 281 282 281 281 281 279 279 280 279 279 279 278 278 278 278 278 279 279 278 277 278 278 277 277 276 277 277 277 277 277 277 277 277
289 287 291 290 287 285 283 283 280 280 281 281 281 280 279 279 278 278 278 278 277 278 278 278 278 277 276 277 277 276 276 276 276 276 276 276 276 276 276 276 276 276 276 276
286 285 286 289 286 284 284 281 280 280 280 279 279 278 277 277 277 276 277 277 276 276 276 276 276 276 276 276 276 276 276 276 275 275 275 275 275 275 275 275 276 276 276 277
284 284 285 286 284 283 284 280 279 279 279 278 277 277 276 275 275 275 276 274 274 273 273 273 274 274 275 275 275 275 275 275 276 275 275 275 275 275 274 274 274 275 276 276
Wind_Speed
3 4 9 13 16 20 20 18 24 16 14 10 18 21 18 12 11 12 11 13 14 15 12 17 23 27 25 30 32 36 37 41 40 39 37 34 41 43 40 38 36 34 31 30
3 10 16 15 14 19 22 17 22 19 8 17 19 25 17 12 15 16 16 17 15 9 6 7 15 22 28 30 35 33 37 37 44 41 43 27 32 35 40 39 36 35 34 31
11 14 14 13 15 16 20 23 19 19 7 21 9 22 16 6 6 8 10 15 12 14 14 11 10 19 24 27 33 36 40 43 44 41 33 29 27 20 32 38 40 39 34 31
13 21 20 22 13 16 19 19 22 20 16 20 14 17 13 18 20 14 16 11 12 9 8 10 10 8 21 30 32 34 34 35 38 39 38 40 33 25 34 37 43 41 37 35
16 10 6 13 26 14 15 17 17 17 13 12 11 9 9 12 14 17 21 20 19 19 16 19 14 15 26 27 33 35 34 35 38 42 42 41 34 28 28 32 40 42 39 37
23 12 8 23 21 16 11 10 2 1 5 17 17 16 13 8 14 13 15 19 20 19 16 13 15 21 22 29 31 32 33 37 41 43 43 42 39 31 32 33 35 38 41 39
4 12 9 17 17 12 13 5 2 5 10 18 18 11 9 3 12 19 22 22 20 15 13 14 14 10 12 20 27 28 31 33 39 41 42 43 41 40 42 40 37 37 40 41
3 7 4 4 8 6 13 12 6 8 7 11 18 15 20 19 15 11 18 16 10 2 3 5 6 5 8 17 23 27 30 31 37 41 43 41 41 41 38 41 39 42 45 44
9 7 9 13 15 12 4 11 11 2 2 1 2 5 6 4 10 19 20 4 3 5 5 5 5 6 9 11 19 27 27 28 33 38 37 39 40 39 38 40 41 40 40 43
5 12 10 3 5 5 4 5 4 3 5 6 0 3 2 8 9 10 9 7 7 6 6 7 7 7 9 14 16 22 27 31 33 32 33 34 41 41 39 40 40 40 39 39
9 5 10 8 4 2 4 5 4 4 3 3 3 2 3 6 5 6 6 6 6 7 7 7 7 10 13 11 9 14 21 24 26 30 30 31 26 31 40 39 39 38 36 37
4 5 8 20 12 0 6 5 6 5 4 1 4 0 3 5 5 8 9 9 7 6 6 9 9 8 10 11 10 3 8 15 21 26 27 28 31 34 32 35 36 36 35 34
5 2 7 10 4 2 3 5 3 3 2 6 5 4 2 7 6 12 12 10 11 10 9 9 7 7 7 10 8 5 3 10 16 21 24 25 28 31 34 30 31 33 32 32
5 3 3 7 14 12 9 12 7 4 3 4 2 1 13 13 13 13 13 13 10 5 5 6 7 6 6 8 7 4 4 7 13 18 21 24 25 28 30 33 31 29 29 30
2 4 1 11 17 4 12 13 16 8 4 3 3 4 7 10 9 10 8 10 11 12 12 6 6 6 5 7 8 5 9 7 12 16 18 20 23 26 28 29 31 31 31 31
1 4 7 4 7 11 10 16 15 10 10 7 5 3 9 8 4 11 12 12 13 12 13 11 6 4 4 5 7 8 14 13 13 16 18 20 23 26 28 28 27 27 25 25
5 1 3 4 1 5 5 8 11 9 10 4 7 6 10 5 4 8 13 11 12 12 12 12 7 3 1 4 5 9 12 14 19 19 17 18 20 21 21 22 23 22 22 21
1 1 0 4 4 5 2 2 3 11 8 8 3 8 9 9 1 3 7 9 10 11 12 11 8 2 2 5 7 7 8 12 14 17 14 14 16 17 15 15 15 16 16 17
3 2 2 2 2 2 2 5 4 2 3 10 8 13 9 11 2 2 12 10 9 10 10 8 10 3 2 5 7 8 9 12 12 12 10 11 13 14 14 14 13 12 13 13
2 2 2 3 3 2 2 9 8 2 2 10 9 10 11 12 5 4 14 11 10 9 11 10 9 6 6 5 7 8 9 11 12 10 9 10 10 13 12 12 12 10 10 11
3 3 1 3 2 4 5 11 6 4 4 9 6 5 8 5 2 10 9 8 7 9 12 13 12 11 10 7 7 10 10 10 9 10 10 10 9 10 10 10 10 8 8 10
3 3 2 2 3 3 11 3 5 2 3 3 4 4 5 6 7 6 6 7 7 8 11 13 10 11 12 9 7 9 10 7 8 9 9 9 9 10 10 11 10 10 10 10
2 1 2 2 1 2 1 4 1 2 4 4 4 5 6 6 5 7 6 7 6 7 9 12 10 9 12 11 7 7 5 5 7 8 8 7 7 8 9 10 10 10 10 10
2 1 1 2 1 1 3 2 2 2 4 5 4 4 5 6 7 7 7 7 6 8 8 11 10 9 9 10 8 7 5 5 6 7 6 5 6 6 7 7 8 9 9 9
3 2 0 1 2 2 3 4 5 5 3 4 4 4 4 6 5 5 6 7 6 8 12 12 10 9 8 7 6 4 3 4 4 5 6 6 6 6 6 6 6 7 6 8
3 3 3 2 2 0 0 1 3 4 5 5 5 4 6 7 7 5 4 6 8 9 13 13 12 10 9 7 6 4 3 1 0 2 3 4 5 6 6 6 6 5 4 7
Wind_Direction
229 191 239 263 244 260 269 250 255 248 228 245 237 244 239 226 242 236 234 234 237 236 237 220 222 220 209 206 200 203 202 206 201 203 202 206 209 212 212 214 213 212 213 213
259 241 253 242 250 245 250 276 255 254 232 218 237 248 249 215 235 233 233 240 238 241 237 214 221 210 205 204 206 202 205 200 204 200 204 201 204 213 214 213 214 215 213 210
252 263 261 252 251 243 244 244 255 272 245 232 228 248 238 232 234 237 226 235 233 229 239 231 224 212 207 205 205 206 208 203 203 201 191 196 201 207 211 214 215 213 211 211
264 254 246 254 240 238 260 246 243 256 275 243 182 255 229 226 230 235 247 234 243 227 236 236 224 212 207 218 215 211 209 203 202 197 194 194 198 196 205 207 210 211 209 210
249 256 259 246 233 214 244 252 249 244 247 286 201 236 235 207 222 226 241 246 245 244 230 238 231 219 226 223 218 213 206 202 201 200 202 197 202 204 201 199 206 209 206 209
254 261 234 243 255 226 250 252 256 307 254 260 258 223 222 176 205 219 233 238 236 234 237 233 231 227 223 222 216 209 200 201 204 201 202 201 202 195 192 193 195 201 205 206
266 254 242 234 257 239 218 150 253 216 225 243 240 242 250 233 211 221 232 234 241 233 225 226 224 216 212 203 208 205 198 199 200 200 201 203 202 202 199 194 191 190 197 203
263 322 196 162 218 236 203 179 167 209 207 236 228 238 247 234 229 226 231 236 249 332 276 279 277 253 231 222 212 205 203 201 196 198 203 204 202 203 200 199 195 198 200 202
331 276 273 252 262 225 180 193 205 359 310 218 187 284 320 166 223 233 239 219 30 29 34 332 326 326 313 282 234 212 206 206 201 201 198 199 201 200 199 202 205 202 203 206
269 292 300 353 260 187 176 160 166 178 204 196 2 293 253 353 320 9 23 21 351 340 341 339 340 331 321 306 277 236 218 208 206 200 200 201 198 198 200 202 202 204 204 205
288 234 287 328 304 280 170 191 199 146 211 139 107 295 304 290 307 319 335 8 345 344 340 337 332 334 333 332 310 247 225 214 206 200 198 197 198 195 199 200 202 203 201 200
250 286 310 297 304 29 242 258 198 153 225 86 132 192 1 313 315 335 4 10 356 355 346 340 341 336 342 347 356 355 211 207 205 202 197 195 192 194 199 198 199 198 194 195
311 334 313 335 339 264 24 316 279 94 57 172 138 243 43 21 3 11 7 6 6 1 355 347 341 350 343 341 353 26 134 183 191 191 188 188 189 190 188 194 188 186 186 185
352 289 202 285 286 310 334 329 288 116 112 154 241 20 349 356 358 353 1 354 356 357 348 342 338 347 344 345 342 43 77 162 178 184 181 181 182 186 187 182 180 177 179 178
75 271 196 295 296 170 14 358 36 71 16 71 49 106 340 348 345 344 349 352 356 358 1 359 347 341 354 18 1 80 94 126 159 162 164 167 174 173 170 165 166 168 171 174
328 273 325 272 209 80 42 19 39 42 22 40 36 44 360 323 343 12 7 352 355 351 345 344 334 340 5 37 49 49 88 104 132 125 129 140 145 149 153 155 155 158 163 167
258 247 353 273 209 273 32 5 27 50 28 355 36 322 325 330 343 9 2 356 346 336 332 330 325 306 26 54 67 70 71 104 113 113 114 124 132 133 140 147 151 156 162 167
223 108 20 281 332 49 113 325 119 90 47 25 2 344 346 337 270 160 19 359 340 335 333 332 327 319 90 89 94 94 94 99 108 110 115 122 127 129 136 144 152 158 167 174
174 89 299 316 12 147 110 20 341 356 52 18 360 353 345 342 167 188 18 1 341 335 330 328 333 357 86 102 114 107 98 104 104 102 119 131 142 142 148 151 157 164 170 174
122 123 14 330 67 20 330 329 325 137 21 6 6 356 345 342 30 343 352 347 345 344 342 353 11 40 74 88 128 122 108 105 102 112 119 126 136 141 144 149 152 164 171 176
348 355 233 303 72 314 336 311 300 58 296 347 343 326 339 347 312 302 320 337 340 350 357 25 45 52 50 54 86 85 91 86 109 123 122 120 124 126 138 142 142 145 160 163
354 319 344 10 55 330 347 344 59 306 298 292 305 305 315 289 307 310 322 332 344 357 7 24 35 41 43 44 80 88 81 95 113 119 117 117 128 134 141 145 138 149 172 163
28 354 321 350 235 123 70 124 302 309 279 304 321 334 323 314 338 331 335 349 357 1 4 22 32 38 40 43 64 88 89 111 115 114 112 119 125 129 139 146 147 160 177 171
228 348 283 209 12 86 70 79 40 297 309 329 351 343 346 339 351 335 350 355 360 359 6 7 21 28 32 35 59 91 108 115 120 120 124 135 146 143 145 156 167 173 175 166
205 3 241 250 162 126 139 54 0 343 340 354 2 17 352 3 351 341 351 353 353 358 2 10 9 13 11 13 24 46 72 95 111 130 145 153 156 160 159 164 171 181 188 186
186 188 167 229 133 187 332 23 356 337 348 4 6 354 14 20 4 345 348 354 355 356 5 10 8 1 349 344 339 343 344 5 134 145 166 167 160 162 168 174 169 179 192 185